Tacoma, WA

6:40 PM PDT on July 21, 2017 (GMT -0700)
McChord Air Force Base

Weather History for KTCM - March, 2015

Change the Weather History Date:

Sunday, March 22, 2015

  Actual Average Record
Temperature  
Mean Temperature 43 °F -  
Max Temperature 53 °F 52 °F 68 °F (1968)
Min Temperature 33 °F 35 °F 26 °F (2001)
Degree Days  
Heating Degree Days 22    
Moisture  
Dew Point 42 °F    
Average Humidity 100    
Maximum Humidity 100    
Minimum Humidity 88    
Precipitation  
Precipitation 0.14 in - - ()
Sea Level Pressure  
Sea Level Pressure 30.01 in    
Wind  
Wind Speed 0 mph (WSW)    
Max Wind Speed 9 mph    
Max Gust Speed -    
Visibility 4 miles    
Events Fog , Rain    
Averages and records for this station are not official NWS values.
T = Trace of Precipitation, MM = Missing Value Source: NWS Daily Summary

Daily Weather History Graph

Daily Weather History Graph

Search for Another Location

Airport or City:

Trip Planner

Search our weather history database for the weather conditions in past years. The results will help you decide how hot, cold, wet, or windy it might be!

Date:

Astronomy

Mar. 22, 2015 Rise Set
Actual Time 7:09 AM PDT 7:25 PM PDT
Civil Twilight 6:38 AM PDT 7:55 PM PDT
Nautical Twilight 6:02 AM PDT 8:31 PM PDT
Astronomical Twilight 5:25 AM PDT 9:09 PM PDT
Moon 8:30 AM PDT 10:43 PM PDT
Length of Visible Light 13h 17m
Length of Day
12h 16m
Waxing Crescent, 8% of the Moon is Illuminated
Mar 22
Waxing Crescent
Mar 27
First Quarter
Apr 4
Full
Apr 11
Last Quarter
Apr 18
New

Hourly Weather History & Observations

Time (PDT) Temp. Dew Point Humidity Pressure Visibility Wind Dir Wind Speed Gust Speed Precip Events Conditions
12:03 AM 39.2 °F 39.2 °F 100% 30.09 in 0.5 mi Calm Calm - N/A Fog Fog
12:08 AM 39.2 °F 39.2 °F 100% 30.09 in 0.8 mi Calm Calm - N/A   Clear
12:13 AM 39.2 °F 39.2 °F 100% 30.09 in 0.5 mi Calm Calm - N/A Fog Fog
12:18 AM 39.2 °F 39.2 °F 100% 30.09 in 0.5 mi Calm Calm - N/A Fog Fog
12:23 AM 39.2 °F 39.2 °F 100% 30.09 in 0.5 mi Calm Calm - N/A Fog Fog
12:28 AM 39.2 °F 39.2 °F 100% 30.09 in 0.5 mi Calm Calm - N/A Fog Fog
12:33 AM 41.0 °F 41.0 °F 100% 30.08 in 0.5 mi Calm Calm - N/A Fog Fog
12:43 AM 41.0 °F 41.0 °F 100% 30.08 in 0.2 mi Calm Calm - N/A Fog Fog
12:53 AM 37.4 °F 37.4 °F 100% 30.08 in 0.5 mi Calm Calm - N/A Fog Fog
12:58 AM 37.2 °F 37.2 °F 100% 30.10 in 0.5 mi Calm Calm - N/A Fog Fog
1:03 AM 37.4 °F 37.4 °F 100% 30.08 in 0.8 mi Calm Calm - N/A   Mostly Cloudy
1:08 AM 37.4 °F 37.4 °F 100% 30.08 in 0.8 mi Calm Calm - N/A   Mostly Cloudy
1:13 AM 37.4 °F 37.4 °F 100% 30.08 in 0.5 mi Calm Calm - N/A Fog Fog
1:18 AM 37.4 °F 37.4 °F 100% 30.07 in 0.5 mi Calm Calm - N/A Fog Fog
1:23 AM 37.4 °F 37.4 °F 100% 30.07 in 0.5 mi Calm Calm - N/A Fog Fog
1:33 AM 37.4 °F 37.4 °F 100% 30.07 in 0.5 mi Calm Calm - N/A Fog Fog
1:38 AM 37.4 °F 37.4 °F 100% 30.06 in 0.5 mi Calm Calm - N/A Fog Fog
1:43 AM 37.4 °F 37.4 °F 100% 30.06 in 0.8 mi Calm Calm - N/A   Partly Cloudy
1:48 AM 39.2 °F 39.2 °F 100% 30.06 in 1.8 mi Calm Calm - N/A   Partly Cloudy
1:53 AM 39.2 °F 39.2 °F 100% 30.06 in 2.0 mi Calm Calm - N/A   Partly Cloudy
1:58 AM 39.2 °F 39.2 °F 100% 30.08 in 1.0 mi Calm Calm - N/A   Partly Cloudy
2:03 AM 39.2 °F 39.2 °F 100% 30.06 in 0.8 mi Calm Calm - N/A   Clear
2:08 AM 37.4 °F 37.4 °F 100% 30.05 in 0.5 mi Calm Calm - N/A Fog Fog
2:13 AM 37.4 °F 37.4 °F 100% 30.05 in 0.2 mi Calm Calm - N/A Fog Fog
2:18 AM 35.6 °F 35.6 °F 100% 30.05 in 0.5 mi Calm Calm - N/A Fog Fog
2:23 AM 35.6 °F 35.6 °F 100% 30.05 in 0.5 mi Calm Calm - N/A Fog Fog
2:28 AM 37.4 °F 37.4 °F 100% 30.05 in 0.5 mi Calm Calm - N/A Fog Fog
2:33 AM 37.4 °F 37.4 °F 100% 30.04 in 0.5 mi Calm Calm - N/A Fog Fog
2:38 AM 39.2 °F 39.2 °F 100% 30.04 in 0.8 mi Calm Calm - N/A   Clear
2:43 AM 39.2 °F 39.2 °F 100% 30.04 in 0.8 mi Calm Calm - N/A   Clear
2:53 AM 39.2 °F 39.2 °F 100% 30.04 in 0.5 mi Calm Calm - N/A Fog Fog
2:58 AM 38.3 °F 38.3 °F 100% 30.06 in 0.5 mi Calm Calm - N/A Fog Fog
3:23 AM 35.6 °F 35.6 °F 100% 30.04 in 0.5 mi Calm Calm - N/A Fog Fog
3:28 AM 35.6 °F 35.6 °F 100% 30.04 in 0.5 mi Calm Calm - N/A Fog Fog
3:33 AM 35.6 °F 35.6 °F 100% 30.04 in 0.5 mi Calm Calm - N/A Fog Fog
3:38 AM 37.4 °F 37.4 °F 100% 30.03 in 1.2 mi Calm Calm - N/A   Clear
3:43 AM 37.4 °F 37.4 °F 100% 30.03 in 5.0 mi Calm Calm - N/A   Clear
3:48 AM 37.4 °F 37.4 °F 100% 30.03 in 2.0 mi Calm Calm - N/A   Clear
3:53 AM 35.6 °F 35.6 °F 100% 30.03 in 2.5 mi Calm Calm - N/A   Clear
3:58 AM 36.5 °F 36.5 °F 100% 30.05 in 10.0 mi Calm Calm - N/A   Clear
4:08 AM 35.6 °F 35.6 °F 100% 30.03 in 2.0 mi Calm Calm - N/A   Clear
4:13 AM 37.4 °F 37.4 °F 100% 30.03 in 1.0 mi Calm Calm - N/A   Clear
4:18 AM 37.4 °F 37.4 °F 100% 30.02 in 0.8 mi Calm Calm - N/A   Clear
4:23 AM 37.4 °F 37.4 °F 100% 30.02 in 1.2 mi Calm Calm - N/A   Clear
4:28 AM 37.4 °F 37.4 °F 100% 30.02 in 1.0 mi Calm Calm - N/A   Clear
4:33 AM 37.4 °F 37.4 °F 100% 30.01 in 0.8 mi Calm Calm - N/A   Clear
4:38 AM 37.4 °F 37.4 °F 100% 30.01 in 1.0 mi Calm Calm - N/A   Clear
4:43 AM 37.4 °F 37.4 °F 100% 30.01 in 0.8 mi Calm Calm - N/A   Clear
4:53 AM 35.6 °F 35.6 °F 100% 30.00 in 1.2 mi Calm Calm - N/A   Clear
4:58 AM 33.8 °F 33.8 °F 100% 30.02 in 1.0 mi Calm Calm - N/A   Clear
5:03 AM 35.6 °F 35.6 °F 100% 29.99 in 0.8 mi Calm Calm - N/A   Clear
5:08 AM 35.6 °F 35.6 °F 100% 29.99 in 1.0 mi Calm Calm - N/A   Clear
5:13 AM 35.6 °F 35.6 °F 100% 29.99 in 1.5 mi Calm Calm - N/A   Clear
5:18 AM 35.6 °F 35.6 °F 100% 29.99 in 1.8 mi Calm Calm - N/A   Clear
5:23 AM 35.6 °F 35.6 °F 100% 29.99 in 2.5 mi Calm Calm - N/A   Clear
5:28 AM 35.6 °F 35.6 °F 100% 30.00 in 6.0 mi Calm Calm - N/A   Partly Cloudy
5:58 AM 37.9 °F 37.9 °F 100% 30.02 in 10.0 mi Calm Calm - N/A   Overcast
6:58 AM 37.9 °F 37.9 °F 100% 30.02 in 10.0 mi Calm Calm - N/A   Overcast
7:58 AM 39.4 °F 39.4 °F 100% 30.00 in 10.0 mi Calm Calm - N/A   Overcast
8:33 AM 41.0 °F 41.0 °F 100% 29.98 in 10.0 mi Calm Calm - N/A   Overcast
8:58 AM 41.5 °F 41.5 °F 100% 30.00 in 10.0 mi Calm Calm - N/A   Overcast
9:58 AM 43.7 °F 43.7 °F 100% 30.01 in 10.0 mi SSW 1.2 mph - N/A   Overcast
10:08 AM 44.6 °F 44.6 °F 100% 29.99 in 10.0 mi Calm Calm - N/A   Overcast
10:21 AM 44.6 °F 44.6 °F 100% 29.99 in 10.0 mi Calm Calm - N/A Rain Light Rain
10:30 AM 44.6 °F 44.6 °F 100% 29.99 in 10.0 mi Calm Calm - N/A   Overcast
10:34 AM 44.6 °F 44.6 °F 100% 29.99 in 10.0 mi Calm Calm - N/A Rain Light Rain
10:45 AM 44.6 °F 44.6 °F 100% 29.99 in 10.0 mi Calm Calm - N/A   Overcast
10:58 AM 45.0 °F 45.0 °F 100% 30.01 in 10.0 mi Calm Calm - 0.00 in   Overcast
11:40 AM 46.4 °F 46.4 °F 100% 29.99 in 10.0 mi Calm Calm - N/A Rain Light Rain
11:51 AM 46.4 °F 46.4 °F 100% 29.99 in 10.0 mi Calm Calm - N/A   Overcast
11:58 AM 46.8 °F 46.8 °F 100% 30.01 in 10.0 mi Calm Calm - 0.00 in   Overcast
12:06 PM 46.4 °F 46.4 °F 100% 29.99 in 10.0 mi Calm Calm - N/A Rain Light Rain
12:58 PM 48.4 °F 48.2 °F 99% 30.02 in 8.0 mi Calm Calm - 0.01 in Rain Light Rain
1:56 PM 48.2 °F 48.2 °F 100% 29.98 in 10.0 mi Calm Calm - N/A   Mostly Cloudy
1:58 PM 48.2 °F 48.2 °F 100% 30.00 in 10.0 mi Calm Calm - 0.04 in   Mostly Cloudy
2:58 PM 50.4 °F 50.2 °F 99% 29.99 in 10.0 mi East 2.3 mph - N/A   Overcast
3:58 PM 51.8 °F 50.4 °F 95% 29.97 in 10.0 mi Calm Calm - N/A   Overcast
4:58 PM 52.9 °F 51.8 °F 96% 29.96 in 10.0 mi SSW 2.3 mph - N/A   Overcast
5:47 PM 53.6 °F 50.0 °F 88% 29.94 in 10.0 mi SSW 9.2 mph - N/A Rain Light Rain
5:50 PM 53.6 °F 50.0 °F 88% 29.95 in 4.0 mi West 8.1 mph - N/A Rain Light Rain
5:55 PM 51.8 °F 51.8 °F 100% 29.95 in 1.2 mi WSW 6.9 mph - N/A Rain Heavy Rain
5:58 PM 52.2 °F 51.4 °F 97% 29.97 in 1.2 mi West 4.6 mph - 0.07 in Rain Rain
6:03 PM 51.8 °F 50.0 °F 94% 29.96 in 2.0 mi WSW 5.8 mph - N/A Rain Light Rain
6:08 PM 51.8 °F 50.0 °F 94% 29.96 in 10.0 mi WSW 9.2 mph - N/A Rain Light Rain
6:09 PM 51.8 °F 50.0 °F 94% 29.96 in 10.0 mi WSW 8.1 mph - N/A   Overcast
6:14 PM 50.0 °F 50.0 °F 100% 29.96 in 10.0 mi West 4.6 mph - N/A   Mostly Cloudy
6:19 PM 50.0 °F 50.0 °F 100% 29.96 in 10.0 mi West 5.8 mph - N/A   Mostly Cloudy
6:29 PM 50.0 °F 50.0 °F 100% 29.96 in 10.0 mi WSW 3.5 mph - N/A   Mostly Cloudy
6:44 PM 50.0 °F 50.0 °F 100% 29.97 in 10.0 mi SW 1.2 mph - N/A   Mostly Cloudy
6:49 PM 50.0 °F 50.0 °F 100% 29.97 in 10.0 mi North - - N/A   Mostly Cloudy
6:54 PM 50.0 °F 50.0 °F 100% 29.97 in 10.0 mi Calm Calm - N/A   Mostly Cloudy
6:58 PM 50.0 °F 49.8 °F 99% 29.99 in 10.0 mi Calm Calm - 0.02 in   Mostly Cloudy
7:03 PM 50.0 °F 50.0 °F 100% 29.97 in 10.0 mi Calm Calm - N/A   Mostly Cloudy
7:58 PM 47.7 °F 47.7 °F 100% 29.99 in 10.0 mi Calm Calm - N/A   Partly Cloudy
8:08 PM 46.4 °F 46.4 °F 100% 29.97 in 2.5 mi Calm Calm - N/A   Partly Cloudy
8:13 PM 46.4 °F 46.4 °F 100% 29.98 in 1.5 mi Calm Calm - N/A   Clear
8:18 PM 46.4 °F 46.4 °F 100% 29.98 in 1.8 mi Calm Calm - N/A   Clear
8:23 PM 46.4 °F 46.4 °F 100% 29.98 in 1.5 mi Calm Calm - N/A   Clear
8:28 PM 46.4 °F 46.4 °F 100% 29.98 in 0.8 mi Calm Calm - N/A   Clear
8:33 PM 46.4 °F 46.4 °F 100% 29.98 in 0.8 mi Calm Calm - N/A   Clear
8:38 PM 46.4 °F 46.4 °F 100% 29.98 in 0.5 mi Calm Calm - N/A Fog Fog
8:48 PM 46.4 °F 46.4 °F 100% 29.98 in 1.0 mi Calm Calm - N/A   Partly Cloudy
8:53 PM 46.4 °F 46.4 °F 100% 29.98 in 1.5 mi Calm Calm - N/A   Scattered Clouds
8:58 PM 46.4 °F 46.4 °F 100% 30.00 in 1.5 mi Calm Calm - N/A   Scattered Clouds
9:03 PM 46.4 °F 46.4 °F 100% 29.98 in 1.8 mi Calm Calm - N/A   Mostly Cloudy
9:08 PM 46.4 °F 46.4 °F 100% 29.98 in 1.8 mi Calm Calm - N/A   Mostly Cloudy
9:13 PM 46.4 °F 46.4 °F 100% 29.98 in 1.2 mi Calm Calm - N/A   Mostly Cloudy
9:18 PM 44.6 °F 44.6 °F 100% 29.98 in 1.8 mi Calm Calm - N/A   Overcast
9:23 PM 44.6 °F 44.6 °F 100% 29.98 in 7.0 mi Calm Calm - N/A   Overcast
9:28 PM 44.6 °F 44.6 °F 100% 29.98 in 10.0 mi Calm Calm - N/A   Mostly Cloudy
9:58 PM 46.4 °F 46.4 °F 100% 30.00 in 10.0 mi Calm Calm - N/A   Mostly Cloudy
10:23 PM 48.2 °F 48.2 °F 100% 29.97 in 10.0 mi Calm Calm - N/A   Mostly Cloudy
10:48 PM 44.6 °F 44.6 °F 100% 29.97 in 2.5 mi Calm Calm - N/A   Clear
10:53 PM 44.6 °F 44.6 °F 100% 29.97 in 0.8 mi Calm Calm - N/A   Clear
10:58 PM 41.0 °F 41.0 °F 100% 29.99 in 0.5 mi Calm Calm - N/A Fog Fog
11:03 PM 41.0 °F 41.0 °F 100% 29.97 in 0.5 mi Calm Calm - N/A Fog Fog
11:08 PM 41.0 °F 41.0 °F 100% 29.97 in 0.8 mi Calm Calm - N/A   Clear
11:28 PM 39.2 °F 39.2 °F 100% 29.97 in 0.5 mi Calm Calm - N/A Fog Fog
11:33 PM 39.2 °F 39.2 °F 100% 29.97 in 0.5 mi Calm Calm - N/A Fog Fog
11:38 PM 39.2 °F 39.2 °F 100% 29.98 in 0.5 mi Calm Calm - N/A Fog Fog
11:43 PM 39.2 °F 39.2 °F 100% 29.98 in 0.8 mi Calm Calm - N/A   Mostly Cloudy
11:48 PM 39.2 °F 39.2 °F 100% 29.98 in 1.0 mi Calm Calm - N/A   Mostly Cloudy
11:58 PM 39.6 °F 39.6 °F 100% 30.00 in 1.0 mi Calm Calm - N/A   Mostly Cloudy